Showing default

CHINASAT 6A, 37150

Orbit data source: Space-Track

CHINASAT 6A, 37150 is a payload satellite owned by China Satcom (CN) in GEO that was launched on Sat, 04 Sep 2010 UTC via a CHANG ZHENG 3B launch vehicle from the Xichang Space Center, China (XSC). Payload-class satellites include a variety of spacecraft equipped with specific instruments for various scientific and technological missions. These include communications satellites like Starlink; space stations such as the ISS; scientific satellites like the Hubble; Earth observation satellites from companies like Planet Labs, Umbra, and HawkEye 360; GPS; miniature CubeSats for education and research; and military/defense satellites.

Not visible in the next 10 days
Identifier
37150, 2010-042A
Orbit
GEO
Last TLE update
10 hours ago
Origin
Manufacturer
CAST
Mission
Non-operational Commercial Communications
Bus & Motor
DFH-4, FY
Mass
5,100 kg wet, ~2,500 kg dry
Launch date (UTC)
2010-09-04 (15 years ago)
Launch vehicle
CHANG ZHENG 3B
Launch site
Xichang Space Center, China (XSC)
Object type
Payload
Rocket body
Debris
Shape & HBR
Box + 2 Pan, 15.5 m
Radar Cross Section
19.960 m², Large (>1 m²)

Expand to show TLE details & history

TLE from 10 hours ago
0 CHINASAT 6A
1 37150U 10042A   25128.84263582 -.00000206  00000-0  00000-0 0  9998
2 37150   3.1819  82.3220 0002861 289.7690 318.7449  0.99707567 53841
Epoch: 2025-05-08T20:13Z
Definitive object data (Epoch: 2025-05-08T20:13:23.734Z)
Latitude
-2.94382°
Longitude
160.52781°
Altitude
35,936.358 km
Speed
3.07 km/s
True Right ascension
22h 03m 08s
True Declination
-2° 56' 27"
Sunlit
Object was in daylight at TLE epoch
Visualization TLE readout
Latitude
1.73165°
Longitude
-54.85776°
Altitude
35,947.547 km
Speed
3.069 km/s
Apparent Right ascension
07h 15m 32s
Apparent Declination
-3° 42' 53"
Sunlit
Object is in daylight
Visualization observer readout
Local Sidereal Time
14:02:07
Azimuth
274.652° WNW
Elevation
-11.305°
Doppler factor
1
Orbital elements
Apogee altitude
35,958.682 km
Perigee altitude
35,934.464 km
Semi-major axis
42,324.71 km
Eccentricity
0.0002861
Inclination
3.1819°
RAAN
82.322°
Arg. of periapsis
289.769°
True anomaly
318.72328°
Mean anomaly
318.7449°
Eccentric anomaly
318.73409°
Mean motion
0.24926 °/min
BSTAR
Unknown
Orbital period
1444.28 mins
Loading historical data...
37150 neighbors
Loading maneuver chart data...
Loading SW <> Apogee altitude chart data...
Loading historical data...
Loading historical data...
Loading historical data...
Loading historical data...
Loading historical data...
Loading historical data...
Loading historical data...

CHINASAT 6A Visibility forecast

Observer location: undefined°, undefined°

CHINASAT 6A is not visible in the next 10 days
Span
Click to sort rows by Start time (UTC) header in descending order
Start Az.
Max El. time (UTC)
Max El. Az.
Max El.
End time (UTC)
End Az.
|